CAPE
0 0 0 0 0 0 0 0 0 0 0 0 0 0 0 0 0 0 0 0 0 0 0 0 0 0 0 0 0 0 0 0 0 0 0 0 0 0 19 162 104 36 4 9
0 0 0 0 0 0 0 0 0 0 0 0 0 0 0 0 0 0 0 0 0 0 0 0 0 0 0 0 0 0 0 0 0 0 0 0 0 0 3 38 52 1 22 57
0 0 0 0 0 0 0 0 47 0 0 0 0 0 0 0 0 0 0 0 0 0 0 0 0 0 0 0 0 0 0 0 0 0 0 0 0 0 0 15 78 16 97 13
0 0 0 0 0 0 0 0 240 175 0 0 0 0 0 0 0 0 0 0 0 21 121 5 0 0 0 0 0 0 0 0 0 0 0 0 0 0 0 0 1 15 34 9
4 0 0 0 0 0 0 0 0 0 131 10 3 3 32 26 8 16 18 274 313 374 405 107 38 224 223 278 0 0 0 0 0 0 0 0 0 0 1 3 3 0 0 0
6 0 1 0 0 0 0 0 0 0 5 134 264 206 127 134 142 91 205 389 447 526 396 304 388 365 392 334 317 6 0 0 0 0 0 0 0 0 0 0 0 0 0 0
5 0 1 0 0 0 2 0 0 0 0 31 220 150 134 138 157 204 188 248 362 556 400 377 453 364 427 400 236 207 0 0 0 5 0 0 0 0 0 0 0 0 0 0
5 3 2 0 0 0 9 2 1 1 0 0 0 0 34 70 73 62 134 252 341 440 369 756 568 430 573 520 357 230 207 304 276 80 0 3 0 0 0 0 0 0 0 0
6 8 7 0 0 0 4 8 1 2 0 0 0 0 0 14 66 74 196 242 171 315 716 799 683 414 359 405 538 455 150 283 375 316 122 57 14 198 392 225 1 242 190 143
3 6 19 0 0 0 1 3 0 7 6 0 0 0 0 0 0 76 148 178 234 453 766 733 580 399 588 452 368 648 578 564 175 231 229 148 289 486 471 134 341 516 569 707
4 2 17 5 0 0 1 8 4 11 9 0 0 0 0 0 0 4 103 166 513 489 777 718 606 600 676 767 482 596 472 406 369 435 340 286 338 528 584 840 767 805 780 795
6 3 7 16 0 0 0 11 2 7 13 0 0 0 0 0 0 0 0 99 287 267 836 922 1026 799 844 525 555 1213 687 392 548 357 511 1083 719 686 743 695 679 800 724 722
7 6 4 10 0 0 0 4 0 0 8 0 0 0 0 0 0 0 0 19 22 199 533 605 781 998 1164 687 638 709 1225 1023 758 914 209 424 722 665 639 655 630 474 459 710
5 7 9 8 1 0 3 9 0 0 2 6 0 0 0 0 0 0 0 0 1 42 255 345 482 585 701 803 993 1027 1099 984 1033 1019 966 714 628 546 525 390 329 389 441 700
4 4 7 8 0 0 6 13 1 0 1 11 0 0 0 0 0 0 0 0 0 0 61 81 191 306 492 592 481 401 727 693 1038 766 927 671 536 450 419 391 512 685 622 806
2 2 3 7 0 0 10 17 8 2 1 8 1 0 0 0 0 0 0 0 0 0 0 8 45 211 221 42 119 235 257 406 406 500 459 582 458 341 377 428 666 810 770 856
0 1 2 1 0 5 14 5 6 1 8 9 1 0 0 0 0 0 0 0 0 1 8 16 76 306 81 57 176 191 87 155 128 133 149 262 369 508 486 606 850 709 1059 1132
1 0 0 0 0 1 4 5 0 0 3 7 11 0 0 0 1 0 0 0 0 2 15 13 83 377 408 196 220 151 75 69 201 250 296 323 420 535 653 818 992 1052 1110 1128
1 0 0 1 5 14 4 0 0 0 1 11 10 0 19 0 6 0 0 0 15 5 17 60 144 239 365 209 318 214 155 301 338 375 268 438 674 682 613 668 926 937 1033 1204
1 4 12 16 10 3 2 5 10 8 5 2 9 0 0 0 15 41 33 17 136 176 158 193 249 165 156 285 362 863 918 849 784 757 656 454 773 819 716 730 750 784 865 1352
20 26 15 13 11 8 8 9 7 6 9 8 3 0 0 0 0 89 144 236 147 83 232 223 187 296 303 990 1087 1103 1078 1068 1111 1141 1092 884 601 866 983 873 891 799 1163 1520
10 8 3 16 18 16 14 27 12 9 2 7 1 1 0 0 0 0 14 202 278 95 325 283 194 419 1435 1219 960 903 832 842 1002 755 936 949 788 762 912 1004 1283 1372 1662 1854
3 14 13 40 28 27 24 25 21 7 1 0 0 0 0 0 0 0 2 241 179 409 259 208 201 1642 1486 1333 1018 776 702 747 1052 1123 664 647 748 883 909 1274 1616 1798 1871 1652
19 27 21 12 21 19 8 15 24 38 55 40 27 58 0 0 0 0 37 188 541 205 133 228 626 1858 1483 1030 789 783 730 698 776 989 1288 717 732 841 946 1395 1770 1919 1925 1646
21 36 8 21 21 17 39 37 35 47 13 16 45 47 25 5 1 0 65 203 113 54 138 241 1347 1134 908 755 660 639 575 711 781 762 955 1312 863 801 1004 1404 1728 1923 1901 1819
18 36 14 10 14 32 29 3 5 1 0 0 40 132 106 73 23 27 19 16 7 103 866 971 915 847 711 574 374 413 502 597 627 731 800 1021 1375 1089 866 990 1527 1613 1681 1561
32 16 5 27 31 65 24 1 1 0 0 57 43 54 55 117 61 16 10 7 111 1027 781 642 791 832 670 429 436 620 689 634 609 766 909 960 1120 1213 1249 1320 1450 1342 1502 1477
CIN
-0 -0 -0 -0 -0 -0 -0 -0 -0 -0 -0 -0 -0 -0 -0 -0 -0 -0 -0 -0 -0 -0 -0 -0 -0 -0 -0 -0 -0 -0 -0 -0 -0 -0 -0 -0 -0 -0 -2 -0 -0 -10 -32 -4
-0 -0 -0 -0 -0 -0 -0 -0 -0 -0 -0 -0 -0 -0 -0 -0 -0 -0 -0 -0 -0 -0 -0 -0 -0 -0 -0 -0 -0 -0 -0 -0 -0 -0 -0 -0 -0 -0 -0 -0 -0 -0 -24 -2
-0 -0 -0 -0 -0 -0 -0 -0 -38 -0 -0 -0 -0 -0 -0 -0 -0 -0 -0 -0 -0 -0 -0 -0 -0 -0 -0 -0 -0 -0 -0 -0 -0 -0 -0 -0 -0 -0 -0 -0 -1 -0 -0 -0
-0 -0 -0 -0 -0 -0 -0 -0 -5 -9 -0 -0 -0 -0 -0 -0 -0 -0 -0 -0 -0 -43 -38 -8 -0 -0 -0 -0 -0 -0 -0 -0 -0 -0 -0 -0 -0 -0 -0 -0 -0 -7 -16 -1
-7 -0 -0 -0 -0 -0 -0 -0 -0 -0 -34 -70 -33 -7 -5 -11 -26 -50 -34 -25 -13 -34 -30 -24 -5 -18 -7 -1 -0 -0 -0 -0 -0 -0 -0 -0 -0 -0 -0 -0 -0 -0 -0 -0
-5 -0 -2 -0 -0 -0 -0 -0 -0 -0 -1 -12 -3 -0 -0 -1 -20 -33 -37 -24 -53 -17 -28 -68 -90 -76 -48 -29 -37 -7 -0 -0 -0 -0 -0 -0 -0 -0 -0 -0 -0 -0 -0 -0
-0 -0 -2 -0 -0 -0 -0 -0 -0 -0 -0 -16 -0 -7 -17 -14 -38 -45 -51 -57 -64 -51 -115 -110 -69 -52 -34 -29 -29 -35 -0 -0 -0 -0 -0 -0 -0 -0 -0 -0 -0 -0 -0 -0
-0 -0 -2 -0 -0 -0 -0 -0 -0 -0 -0 -0 -0 -0 -51 -58 -95 -104 -69 -58 -70 -108 -96 -16 -1 -3 -8 -8 -21 -14 -17 -0 -1 -1 -0 -0 -0 -0 -0 -0 -0 -0 -0 -0
-0 -0 -0 -0 -0 -0 -0 -0 -0 -0 -0 -0 -0 -0 -0 -75 -60 -60 -38 -65 -122 -128 -29 -0 -0 -0 -0 -0 -7 -21 -18 -17 -0 -0 -0 -0 -0 -8 -55 -29 -0 -14 -28 -18
-0 -0 -0 -0 -0 -0 -0 -0 -0 -0 -0 -0 -0 -0 -0 -0 -0 -58 -41 -91 -71 -83 -3 -0 -0 -1 -4 -0 -0 -1 -2 -2 -0 -0 -0 -0 -19 -72 -87 -17 -9 -62 -79 -82
-0 -0 -0 -0 -0 -0 -0 -0 -0 -0 -0 -0 -0 -0 -0 -0 -0 -18 -63 -57 -48 -28 -8 -0 -0 -0 -1 -1 -9 -0 -0 -0 -0 -0 -0 -0 -64 -81 -12 -75 -77 -102 -121 -135
-0 -0 -0 -1 -0 -8 -0 -0 -0 -0 -0 -0 -0 -0 -0 -0 -0 -0 -0 -112 -100 -70 -18 -7 -2 -0 -3 -1 -0 -39 -2 -1 -1 -0 -0 -25 -57 -31 -51 -85 -115 -135 -169 -168
-0 -0 -0 -0 -3 -0 -0 -0 -0 -0 -0 -0 -0 -0 -0 -0 -0 -0 -1 -95 -138 -125 -132 -65 -30 -20 -15 -0 -0 -1 -31 -100 -8 -10 -4 -4 -18 -58 -80 -112 -140 -192 -185 -197
-0 -0 -0 -0 -2 -0 -0 -0 -0 -0 -0 -0 -0 -0 -0 -0 -0 -0 -0 -0 -58 -183 -123 -62 -34 -21 -65 -1 -36 -16 -41 -82 -23 -9 -7 -17 -32 -101 -141 -174 -192 -203 -192 -178
-0 -0 -0 -0 -0 -0 -0 -0 -0 -0 -0 -0 -0 -0 -0 -0 -0 -0 -0 -0 -0 -0 -81 -66 -37 -24 -58 -44 -75 -24 -32 -12 -5 -0 -39 -49 -44 -76 -122 -144 -160 -180 -209 -167
-0 -0 -0 -0 -0 -0 -0 -0 -0 -0 -0 -0 -0 -0 -0 -0 -0 -0 -0 -0 -0 -0 -0 -120 -70 -72 -42 -64 -48 -78 -50 -45 -39 -26 -44 -73 -106 -107 -86 -116 -112 -111 -126 -125
-0 -0 -0 -0 -0 -0 -0 -0 -0 -0 -1 -0 -0 -0 -0 -0 -0 -0 -0 -0 -0 -113 -140 -133 -56 -9 -84 -80 -80 -83 -65 -37 -30 -44 -61 -75 -57 -44 -53 -84 -79 -187 -88 -88
-0 -0 -0 -0 -0 -0 -0 -0 -0 -0 -0 -0 -0 -0 -0 -0 -25 -0 -0 -0 -0 -58 -116 -116 -42 -2 -15 -44 -99 -62 -44 -50 -27 -37 -39 -36 -37 -50 -55 -68 -53 -43 -60 -93
-0 -0 -0 -0 -0 -0 -0 -0 -0 -0 -0 -0 -0 -0 -11 -0 -68 -15 -0 -0 -26 -66 -84 -31 -1 -0 -2 -49 -26 -29 -26 -28 -31 -44 -59 -50 -44 -49 -66 -47 -45 -52 -56 -89
-0 -0 -0 -0 -0 -0 -0 -0 -0 -0 -0 -0 -0 -0 -0 -0 -34 -17 -4 -30 -0 -3 -3 -2 -5 -12 -15 -9 -13 -34 -55 -63 -70 -66 -58 -44 -39 -44 -44 -48 -44 -49 -57 -76
-0 -0 -0 -0 -0 -0 -0 -2 -0 -0 -0 -0 -0 -0 -0 -0 -0 -0 -0 -0 -0 -0 -0 -1 -0 -6 -0 -43 -53 -85 -115 -133 -133 -117 -98 -65 -44 -27 -30 -41 -61 -72 -55 -58
-2 -0 -0 -0 -0 -3 -2 -0 -0 -0 -1 -0 -0 -0 -0 -0 -0 -0 -2 -0 -0 -1 -12 -0 -1 -1 -44 -47 -76 -106 -133 -150 -125 -140 -114 -110 -86 -56 -44 -36 -48 -50 -71 -55
-0 -0 -1 -0 -1 -0 -0 -0 -1 -1 -0 -0 -0 -0 -0 -0 -0 -0 -0 -0 -0 -4 -0 -0 -0 -28 -41 -55 -90 -110 -133 -147 -118 -103 -136 -146 -100 -70 -59 -43 -48 -70 -59 -59
-0 -0 -0 -0 -0 -0 -0 -0 -0 -0 -9 -5 -1 -6 -0 -0 -0 -0 -0 -0 -0 -0 -0 -0 -0 -10 -38 -88 -122 -122 -109 -129 -138 -145 -115 -145 -119 -76 -73 -47 -55 -71 -64 -67
-0 -0 -0 -0 -0 -0 -0 -0 -0 -0 -0 -5 -3 -0 -3 -1 -5 -0 -0 -0 -0 -23 -2 -0 -14 -80 -104 -120 -138 -124 -135 -121 -119 -140 -138 -119 -122 -99 -77 -67 -67 -67 -55 -40
-2 -0 -0 -0 -0 -0 -0 -4 -1 -0 -0 -0 -0 -4 -3 -0 -0 -0 -0 -0 -0 -7 -9 -30 -81 -86 -110 -135 -155 -156 -150 -141 -127 -134 -133 -120 -112 -109 -88 -97 -83 -77 -72 -58
-0 -0 -2 -0 -0 -0 -0 -0 -0 -0 -0 -0 -1 -5 -6 -2 -0 -0 -0 -0 -0 -7 -34 -57 -72 -73 -92 -129 -136 -112 -113 -122 -134 -124 -113 -110 -121 -120 -104 -107 -92 -90 -62 -35
Wind_Speed
8 9 10 10 12 20 8 5 5 5 4 7 4 9 5 2 8 7 8 6 8 10 1 7 10 12 12 15 13 18 18 10 10 18 17 16 15 21 18 11 10 7 7 11
8 9 8 8 8 10 8 6 2 5 5 6 8 4 7 6 8 8 5 6 5 3 6 5 8 5 2 7 14 17 17 11 11 11 15 10 14 16 12 14 11 9 11 8
7 8 8 6 6 8 6 5 5 5 6 3 8 5 6 7 7 9 8 9 7 9 11 10 5 8 5 7 15 5 12 17 15 11 15 17 19 17 15 18 13 12 10 13
7 7 7 6 6 5 5 3 3 6 6 9 7 5 1 6 6 7 5 7 11 8 6 7 9 9 7 6 5 6 15 18 11 14 13 9 20 21 20 17 17 17 11 13
8 7 6 4 6 5 5 5 4 2 4 4 8 6 8 10 6 6 9 9 2 8 11 8 3 7 2 3 7 10 15 11 13 15 14 10 13 16 18 17 19 10 14 16
8 7 6 4 4 5 3 2 2 5 5 6 6 6 8 5 2 7 7 8 9 9 4 8 13 12 12 9 6 8 13 10 8 14 10 12 15 16 14 13 13 13 17 15
9 7 6 3 1 5 4 3 5 5 5 6 7 4 5 7 4 9 9 9 9 4 12 17 11 11 10 8 7 9 7 11 8 6 8 13 7 12 10 7 10 14 17 18
9 8 7 5 5 3 5 2 4 4 7 4 7 10 9 8 9 11 11 11 8 10 14 9 8 9 7 7 4 8 8 6 5 6 11 6 9 7 9 11 9 7 10 15
9 7 7 6 6 5 4 3 3 5 6 2 5 8 5 8 6 8 10 6 6 6 8 7 8 9 10 9 8 4 7 7 8 6 11 11 11 12 4 3 11 5 2 7
9 8 9 8 6 8 3 3 4 5 6 7 6 5 6 2 5 7 4 5 4 5 8 9 7 8 1 6 10 7 8 7 11 9 9 8 9 6 3 10 4 5 8 8
9 8 9 10 8 7 4 2 3 5 6 10 9 7 8 7 6 7 6 7 6 6 7 7 4 8 4 6 2 3 7 7 7 3 5 11 6 6 7 6 4 8 8 9
9 9 8 11 10 9 6 3 2 3 5 8 12 13 14 16 16 8 5 6 5 4 6 2 4 6 3 9 8 6 9 5 8 5 5 6 4 8 6 7 8 7 9 9
9 9 9 12 11 10 10 2 2 2 4 9 10 9 10 17 20 14 8 6 4 3 5 6 3 6 4 7 10 6 3 3 5 5 12 5 5 6 7 9 8 9 9 10
8 10 10 11 12 11 11 3 3 2 4 6 1 2 5 4 10 17 20 13 4 6 4 6 5 5 1 2 5 5 7 0 4 9 12 9 8 6 6 6 6 8 9 8
9 9 10 11 12 11 7 5 4 3 3 6 9 19 14 8 15 14 15 16 15 7 7 6 7 2 5 2 3 7 6 6 7 8 5 5 6 6 7 7 6 7 7 7
9 8 8 11 13 11 3 3 4 7 4 3 6 5 6 4 4 11 15 11 9 8 6 7 6 1 6 5 8 6 11 8 9 8 6 7 11 14 11 7 5 5 6 4
8 6 8 12 13 6 3 3 4 7 4 4 6 5 6 3 5 5 8 10 5 6 8 8 9 6 5 7 12 12 10 9 11 12 11 11 13 8 7 6 3 4 4 3
4 2 8 11 10 3 4 6 8 6 3 5 6 5 4 9 5 6 5 7 7 7 7 5 7 5 5 8 10 11 14 12 10 10 10 14 12 8 7 7 7 8 6 4
3 8 13 4 2 3 1 13 11 1 2 4 4 5 3 5 4 4 6 5 6 4 7 9 6 9 8 9 13 14 13 9 11 11 12 11 10 11 12 11 11 11 6 6
9 3 2 3 4 17 14 3 4 3 3 4 6 5 6 4 6 8 6 6 7 7 9 4 6 12 14 14 10 7 10 13 13 15 15 13 9 9 12 14 12 10 7 6
2 3 2 3 15 3 3 4 5 4 4 7 7 13 10 4 6 4 5 4 6 7 7 7 6 8 8 5 5 4 7 9 12 15 17 15 10 8 9 9 7 7 7 8
1 2 3 2 3 4 5 5 4 6 6 7 7 8 8 5 4 6 4 5 5 6 8 6 7 4 8 6 1 3 6 8 9 9 12 12 12 10 8 7 8 10 11 11
1 3 4 4 4 6 6 7 5 6 5 5 7 7 5 5 7 5 4 6 7 4 7 7 3 9 7 4 2 3 5 6 7 5 4 9 11 11 9 9 8 9 11 12
3 4 5 5 5 6 5 6 7 4 3 4 6 5 6 4 7 5 7 6 2 8 14 13 6 8 6 4 2 4 4 5 6 7 6 3 8 9 9 10 11 12 12 13
4 4 5 7 7 5 4 4 5 3 4 4 4 4 5 6 5 5 6 6 7 7 13 6 10 8 5 4 3 2 3 5 5 6 7 6 5 8 9 10 11 12 12 14
3 6 4 5 5 9 6 4 4 3 4 4 5 4 3 7 6 8 11 9 8 7 4 7 8 8 6 4 2 2 4 5 6 5 5 6 4 7 9 10 11 13 15 16
5 5 7 7 4 4 2 1 2 5 2 3 2 5 9 4 7 11 7 9 3 7 7 6 6 5 4 3 2 4 5 6 6 7 5 4 3 4 6 10 12 13 15 14
Wind_Direction
304 314 324 335 340 327 293 288 232 128 254 211 213 234 236 342 249 211 267 282 276 268 208 236 224 228 232 200 209 205 221 222 229 208 226 228 250 219 232 226 220 233 300 286
300 310 323 339 349 358 315 302 319 148 266 230 205 170 237 257 246 237 240 258 239 324 284 260 226 210 260 194 201 211 199 223 223 224 181 203 234 232 255 259 262 283 283 292
292 304 319 342 344 344 284 276 212 155 220 291 282 206 215 236 198 266 256 272 278 267 263 231 252 220 143 190 226 358 204 231 227 225 226 210 212 229 225 242 243 243 233 281
276 291 313 331 335 335 276 233 80 347 185 206 231 238 271 237 245 209 238 235 247 278 277 231 218 231 171 169 145 217 227 227 230 239 253 249 213 221 220 233 252 267 287 292
276 279 300 318 335 319 260 305 318 196 295 244 235 189 238 259 241 238 213 245 1 282 256 296 328 349 256 85 163 201 227 241 232 230 228 233 249 241 241 216 250 276 276 279
281 262 280 299 326 309 299 34 245 279 135 212 240 213 241 270 325 243 275 305 308 273 0 321 304 289 286 287 298 194 212 224 210 229 203 225 230 237 213 222 222 248 255 259
299 247 258 250 256 322 312 8 289 268 242 236 228 263 259 258 271 287 299 289 287 32 312 292 256 247 241 240 229 260 196 218 231 239 175 218 221 186 216 239 281 280 261 266
305 240 238 218 206 267 299 336 286 289 270 303 253 242 257 267 261 256 277 280 283 313 292 262 204 192 193 192 217 227 255 218 173 219 216 225 166 161 196 216 274 298 285 255
305 251 226 205 207 206 281 298 300 282 298 231 334 274 268 278 271 264 243 265 302 285 271 251 232 207 209 179 172 229 229 254 268 176 272 227 232 130 148 263 253 106 276 300
305 294 215 201 200 192 250 307 266 273 270 269 277 259 307 344 269 274 281 344 286 229 254 250 224 229 305 223 206 165 197 238 237 217 244 255 100 127 158 229 15 19 358 341
293 293 227 199 196 185 198 317 262 286 285 291 269 265 264 242 246 274 46 264 189 250 246 257 200 268 141 248 302 250 233 242 220 240 269 249 113 132 250 28 354 359 351 343
284 283 257 199 191 187 189 261 245 254 256 295 318 277 274 264 274 301 246 334 328 352 276 247 326 224 227 259 230 161 245 289 314 295 357 65 172 304 342 350 335 350 338 333
283 278 261 201 194 185 190 225 152 233 270 267 239 241 246 227 238 244 258 227 260 223 358 324 327 270 320 244 235 300 152 351 262 315 244 310 350 333 310 303 306 321 321 322
278 276 250 209 192 188 188 205 173 252 288 282 338 129 240 223 219 220 232 258 233 294 272 277 282 282 10 322 344 294 26 299 277 253 268 300 88 28 11 340 312 302 305 312
283 277 237 207 185 185 197 234 212 249 286 316 309 300 271 248 235 224 219 230 238 253 248 234 251 307 247 183 268 248 192 255 251 292 45 328 330 358 347 322 323 325 309 314
288 272 225 198 174 162 180 257 192 205 187 272 281 3 258 195 227 219 210 207 211 227 232 243 251 184 270 260 259 267 263 246 274 282 300 279 294 298 285 280 296 318 310 318
290 266 215 177 160 182 225 357 49 139 162 242 273 247 145 184 157 163 189 198 205 225 225 235 250 202 219 257 258 255 266 262 270 275 283 281 261 282 282 219 231 202 289 305
284 293 185 155 155 22 278 180 146 150 226 244 265 266 226 187 178 154 168 173 201 207 242 229 236 160 233 250 254 255 258 270 280 275 268 261 278 270 222 217 211 227 247 234
182 118 114 102 160 198 213 130 158 209 278 284 241 272 84 175 210 101 182 188 192 186 221 225 219 220 219 238 245 254 259 260 284 290 281 281 268 258 229 233 231 247 230 240
146 147 181 189 191 121 123 142 158 185 212 239 257 258 254 248 170 185 181 193 227 194 205 167 230 245 251 241 270 287 276 269 269 264 259 255 248 232 222 227 238 241 243 203
215 195 207 66 137 167 193 192 193 174 226 210 229 233 241 180 253 208 214 191 191 231 171 218 217 234 212 166 224 268 288 277 264 253 255 263 267 246 231 233 230 223 195 190
166 119 99 137 199 206 213 193 185 208 228 188 225 205 214 218 247 238 192 240 194 242 133 216 239 168 141 169 194 322 320 314 299 258 244 242 239 234 234 221 194 191 180 161
187 217 194 183 157 224 218 187 192 206 208 200 190 178 187 190 225 212 232 221 231 114 206 215 250 132 154 165 246 295 328 351 359 356 267 224 222 222 215 200 186 168 165 160
225 178 225 202 188 228 198 220 205 211 232 228 199 162 206 189 188 222 219 213 174 228 222 217 163 160 157 186 239 285 332 335 3 11 360 222 215 219 209 202 181 173 172 167
234 203 221 220 228 247 237 280 282 223 270 261 206 239 221 186 227 206 233 192 224 212 221 227 111 141 152 173 198 245 341 349 337 348 2 6 225 216 210 205 184 175 171 170
227 224 239 234 258 239 216 242 245 24 332 286 259 227 234 220 223 195 211 227 220 180 140 110 135 145 150 163 213 275 303 305 319 342 340 350 328 231 217 202 194 183 172 169
214 224 236 243 274 279 126 101 33 339 265 212 262 237 214 250 222 217 213 224 213 120 129 130 120 143 155 169 228 265 278 285 293 302 309 329 314 245 198 196 192 189 178 179